Torna al catalogo

COSMOS 1690

AttivoNavigazionePO
NORAD 16138·PAYLOAD·🇷🇺 Russia

Lanciato Oct 9, 1985 da Plesetsk Cosmodrome

Loading…

Prossimi Passaggi (prossime 24 ore)

TLE

AggiornatoSource: Space-Track

Epoca: Sep 14, 2026, 05:08 UTC

1 16138U 85094A   26257.21446653  .00000039  00000-0  14842-3 0  9992
2 16138  82.6114 164.1002 0022881  90.0005  76.5887 12.66108684891250

Traccia COSMOS 1690 in tempo reale con AllMySat

Download on the App Store